AFL1260 UNNT-USRR

Flight info

Callsign AFL1260
Flight time N/A
Altitude 36000
Route DIMID1K DIMID R484 BA R104 KUPON R229 KARPO KARPO1L
Aircraft A320/M-SDE3FGHIRWY/LB1

Departure

Time N/A
Airport Novosibirsk Tolmachevo Airport (UNNT)

Arrival

Time 2026-04-30 22:32
Airport Surgut International Airport (USRR)
Time Latitude Longitude Altitude Speed Heading
2026-04-30 21:48 58.47268 78.33443 36207 ft 417 kts 300°
2026-04-30 21:49 58.50552 78.24307 36244 ft 417 kts 299°
2026-04-30 21:49 58.53827 78.15149 36238 ft 417 kts 299°
2026-04-30 21:50 58.57099 78.05970 36229 ft 417 kts 299°
2026-04-30 21:50 58.60350 77.96839 36222 ft 417 kts 299°
2026-04-30 21:51 58.63617 77.87626 36219 ft 418 kts 299°
2026-04-30 21:51 58.66884 77.78389 36219 ft 418 kts 299°
2026-04-30 21:52 58.70133 77.69127 36221 ft 418 kts 298°
2026-04-30 21:52 58.72846 77.61348 36221 ft 418 kts 298°
2026-04-30 21:53 58.76090 77.52054 36218 ft 418 kts 298°
2026-04-30 21:53 58.79320 77.42752 36226 ft 418 kts 298°
2026-04-30 21:54 58.82529 77.33484 36223 ft 418 kts 298°
2026-04-30 21:54 58.85744 77.24143 36220 ft 418 kts 298°
2026-04-30 21:55 58.88983 77.14723 36214 ft 418 kts 298°
2026-04-30 21:55 58.92176 77.05401 36212 ft 418 kts 298°
2026-04-30 21:56 58.95377 76.95988 36244 ft 418 kts 297°
2026-04-30 21:56 58.98561 76.86587 36211 ft 416 kts 297°
2026-04-30 21:57 59.01743 76.77177 36215 ft 417 kts 297°
2026-04-30 21:57 59.04927 76.67747 36213 ft 417 kts 297°
2026-04-30 21:58 59.08093 76.58290 36209 ft 417 kts 297°
2026-04-30 21:58 59.11364 76.49031 36205 ft 423 kts 305°
2026-04-30 21:59 59.15621 76.40956 36214 ft 428 kts 310°
2026-04-30 22:00 59.22113 76.28976 36212 ft 427 kts 309°
2026-04-30 22:00 59.28537 76.16955 36217 ft 427 kts 309°
2026-04-30 22:01 59.32829 76.08896 36219 ft 427 kts 309°
2026-04-30 22:01 59.37127 76.00837 36220 ft 427 kts 309°
2026-04-30 22:02 59.41408 75.92758 36262 ft 427 kts 309°
2026-04-30 22:02 59.45690 75.84654 36207 ft 427 kts 308°
2026-04-30 22:03 59.49968 75.76542 36211 ft 426 kts 308°
2026-04-30 22:03 59.54233 75.68407 36212 ft 426 kts 308°
2026-04-30 22:04 59.58482 75.60259 36211 ft 426 kts 308°
2026-04-30 22:05 59.64832 75.48057 36214 ft 427 kts 308°
2026-04-30 22:05 59.69088 75.39842 36233 ft 427 kts 307°
2026-04-30 22:06 59.73344 75.31592 36222 ft 428 kts 308°
2026-04-30 22:06 59.78307 75.24651 36215 ft 446 kts 322°
2026-04-30 22:06 59.81000 75.21736 36211 ft 446 kts 322°
2026-04-30 22:07 59.86456 75.15826 36211 ft 447 kts 322°
2026-04-30 22:07 59.91911 75.09873 36243 ft 447 kts 322°
2026-04-30 22:08 59.97355 75.03880 36210 ft 446 kts 322°
2026-04-30 22:08 60.02794 74.97862 36206 ft 446 kts 322°
2026-04-30 22:09 60.08184 74.91897 36083 ft 440 kts 321°
2026-04-30 22:09 60.10850 74.88950 35332 ft 436 kts 321°
2026-04-30 22:09 60.13499 74.86000 34494 ft 433 kts 320°
2026-04-30 22:10 60.16088 74.83125 33613 ft 420 kts 320°
2026-04-30 22:10 60.18626 74.80306 32690 ft 411 kts 320°
2026-04-30 22:10 60.21100 74.77546 31742 ft 402 kts 319°
2026-04-30 22:10 60.23513 74.74843 30897 ft 393 kts 319°
2026-04-30 22:11 60.28360 74.69328 28794 ft 405 kts 320°
2026-04-30 22:11 60.30807 74.66552 28247 ft 399 kts 320°
2026-04-30 22:11 60.33191 74.63863 27632 ft 395 kts 320°
2026-04-30 22:12 60.35582 74.61165 26996 ft 392 kts 320°
2026-04-30 22:12 60.37957 74.58479 26348 ft 390 kts 320°
2026-04-30 22:12 60.40324 74.55800 25691 ft 389 kts 321°
2026-04-30 22:12 60.42681 74.53124 25038 ft 388 kts 321°
2026-04-30 22:13 60.45037 74.50442 24401 ft 388 kts 321°
2026-04-30 22:13 60.47390 74.47757 23712 ft 388 kts 321°
2026-04-30 22:13 60.49738 74.45076 23000 ft 386 kts 321°
2026-04-30 22:13 60.52068 74.42416 22405 ft 383 kts 321°
2026-04-30 22:14 60.54382 74.39772 21814 ft 380 kts 321°
2026-04-30 22:14 60.56677 74.37143 21262 ft 376 kts 322°
2026-04-30 22:14 60.58945 74.34534 20721 ft 373 kts 322°
2026-04-30 22:14 60.61197 74.31943 20200 ft 370 kts 322°
2026-04-30 22:15 60.63437 74.29389 19688 ft 368 kts 322°
2026-04-30 22:15 60.65637 74.26894 19187 ft 365 kts 323°
2026-04-30 22:15 60.67844 74.24390 18676 ft 363 kts 323°
2026-04-30 22:15 60.70046 74.21888 18116 ft 361 kts 323°
2026-04-30 22:16 60.72230 74.19397 17579 ft 358 kts 323°
2026-04-30 22:16 60.74395 74.16921 17050 ft 355 kts 323°
2026-04-30 22:17 60.80794 74.09579 15425 ft 349 kts 323°
2026-04-30 22:17 60.82902 74.07111 14878 ft 346 kts 320°
2026-04-30 22:17 60.86311 74.00588 13758 ft 332 kts 304°
2026-04-30 22:18 60.87808 73.96992 13185 ft 330 kts 304°
2026-04-30 22:18 60.90770 73.89887 12075 ft 325 kts 305°
2026-04-30 22:19 60.93692 73.82860 10955 ft 321 kts 305°
2026-04-30 22:19 60.95117 73.79429 10777 ft 308 kts 305°
2026-04-30 22:19 60.97767 73.73046 10551 ft 282 kts 305°
2026-04-30 22:20 60.99016 73.70032 10377 ft 273 kts 305°
2026-04-30 22:20 61.01438 73.64153 10001 ft 267 kts 305°
2026-04-30 22:20 61.02638 73.61221 9862 ft 267 kts 305°
2026-04-30 22:21 61.03837 73.58286 9641 ft 267 kts 305°
2026-04-30 22:21 61.05031 73.55364 9297 ft 266 kts 306°
2026-04-30 22:21 61.06225 73.52447 8923 ft 265 kts 306°
2026-04-30 22:21 61.07411 73.49543 8575 ft 264 kts 307°
2026-04-30 22:22 61.08596 73.46643 8215 ft 264 kts 307°
2026-04-30 22:22 61.09779 73.43747 7851 ft 263 kts 307°
2026-04-30 22:22 61.10957 73.40853 7491 ft 263 kts 308°
2026-04-30 22:22 61.12118 73.38001 7141 ft 262 kts 308°
2026-04-30 22:23 61.13292 73.35112 6777 ft 262 kts 308°
2026-04-30 22:23 61.14463 73.32227 6405 ft 261 kts 309°
2026-04-30 22:23 61.15632 73.29347 6040 ft 260 kts 309°
2026-04-30 22:23 61.16795 73.26480 5679 ft 259 kts 309°
2026-04-30 22:24 61.17950 73.23620 5331 ft 258 kts 308°
2026-04-30 22:24 61.19098 73.20776 4979 ft 257 kts 309°
2026-04-30 22:24 61.20242 73.17949 4617 ft 255 kts 309°
2026-04-30 22:24 61.21381 73.15125 4265 ft 254 kts 308°
2026-04-30 22:25 61.22515 73.12303 3850 ft 255 kts 308°
2026-04-30 22:25 61.23632 73.09520 3426 ft 253 kts 308°
2026-04-30 22:25 61.24754 73.06730 3051 ft 251 kts 308°
2026-04-30 22:25 61.25881 73.03998 2717 ft 247 kts 314°
2026-04-30 22:26 61.28855 73.01930 2063 ft 220 kts
2026-04-30 22:26 61.30228 73.03029 1923 ft 203 kts 33°
2026-04-30 22:26 61.30929 73.04283 1973 ft 196 kts 48°
2026-04-30 22:27 61.31957 73.07066 1886 ft 168 kts 52°
2026-04-30 22:27 61.32626 73.08902 1852 ft 152 kts 52°
2026-04-30 22:27 61.33842 73.12341 1856 ft 145 kts 61°
2026-04-30 22:28 61.34235 73.16368 1873 ft 145 kts 88°
2026-04-30 22:28 61.34271 73.18460 1868 ft 144 kts 89°
2026-04-30 22:29 61.34321 73.24715 1445 ft 143 kts 91°
2026-04-30 22:29 61.34332 73.26771 1257 ft 141 kts 91°
2026-04-30 22:30 61.34377 73.34703 491 ft 132 kts 92°
2026-04-30 22:31 61.34387 73.39966 206 ft 77 kts 90°
2026-04-30 22:32 61.34243 73.40948 208 ft 0 kts 179°
2026-04-30 22:34 61.34242 73.40948 208 ft 1 kts 179°
2026-04-30 22:35 61.34172 73.40915 210 ft 3 kts 276°
2026-04-30 22:36 61.34134 73.40699 211 ft 4 kts 181°
2026-04-30 22:36 61.34114 73.40700 208 ft 2 kts 179°
2026-04-30 22:37 61.34092 73.40701 208 ft 0 kts 179°
2026-04-30 22:37 61.34090 73.40701 208 ft 0 kts 179°